Home > Weather > Metairie > Past weeks

Flag for USA Past Weather in Metairie, Louisiana, USA — Yesterday and Last 2 Weeks

Now
89 °F

Broken clouds.


Feels Like: 102 °F
Forecast: 80 / 89 °F
Wind: 6 mph from South

Location: New Orleans International Airport

Current Time: Jul 24, 2016 at 1:46:21 PM

Latest Report: Jul 24, 2016 at 1:01 PM


Visibility: 10 mi

Pressure: 29.98 "Hg

Humidity: 68%

Dew Point: 77 °F

Location of MetairieLocation

Past Weather in Metairie — Graph

°F

Metairie Temperature Yesterday

Maximum temperature yesterday: 94 °F (at 12:53 PM)
Minimum temperature yesterday: 80 °F (at 5:53 AM)
Average temperature yesterday: 87 °F

High & Low Weather Summary for the Past Weeks

 TemperatureHumidityPressure
High98 °F (Jul 20, 3:53 PM)91% (Jul 16, 2:53 AM)30.23 "Hg (Jul 16, 2:53 AM)
Low75 °F (Jul 10, 1:53 PM)40% (Jul 20, 2:53 PM)29.93 "Hg (Jul 23, 6:53 PM)
Average85 °F73%30.08 "Hg
* Reported Jul 9 11:53 AM — Jul 24 11:53 AM, Metairie, Weather by CustomWeather, © 2016

Note: Actual official high and low records may vary slightly from our data, if they occured in-between our weather recording intervals... More about our weather records

Advertising

Metairie Weather History for the Previous 24 Hours

Scroll right to see more
 ConditionsComfort  
Time TempWeatherWind HumidityBarometerVisibility
11:53 AM
Sun, Jul 24
91 °FPassing clouds.9 mph61%30.01 "Hg10 mi
10:53 AM88 °FPartly sunny.3 mph70%30.01 "Hg10 mi
9:53 AM86 °FBroken clouds.3 mph75%30.00 "Hg10 mi
8:53 AM86 °FBroken clouds.5 mph75%30.00 "Hg10 mi
7:53 AM85 °FBroken clouds.5 mph77%29.99 "Hg10 mi
6:53 AM82 °FPassing clouds.3 mph85%29.97 "Hg10 mi
5:53 AM82 °FPassing clouds.No wind82%29.97 "Hg10 mi
4:53 AM83 °FPassing clouds.3 mph79%29.95 "Hg10 mi
3:53 AM83 °FPassing clouds.3 mph79%29.95 "Hg10 mi
2:53 AM83 °FPassing clouds.5 mph82%29.95 "Hg10 mi
1:53 AM84 °FPassing clouds.5 mph77%29.96 "Hg10 mi
12:53 AM84 °FPassing clouds.No wind77%29.97 "Hg10 mi
11:53 PM
Sat, Jul 23
85 °FPassing clouds.No wind75%29.98 "Hg10 mi
10:53 PM84 °FPassing clouds.No wind77%29.99 "Hg10 mi
10:03 PM84 °FPassing clouds.3 mph74%29.97 "Hg10 mi
9:53 PM85 °FPassing clouds.No wind72%29.98 "Hg10 mi
8:53 PM86 °FBroken clouds.5 mph67%29.96 "Hg10 mi
7:53 PM87 °FPartly sunny.No wind69%29.93 "Hg10 mi
6:53 PM92 °FPartly sunny.8 mph58%29.93 "Hg10 mi
5:53 PM92 °FPartly sunny.8 mph56%29.93 "Hg10 mi
4:53 PM92 °FPartly sunny.13 mph58%29.93 "Hg10 mi
3:53 PM89 °FLight rain. Broken clouds.12 mph68%29.96 "Hg9 mi
2:53 PM92 °FBroken clouds.13 mph64%29.98 "Hg10 mi
1:53 PM92 °FBroken clouds.No wind58%30.00 "Hg10 mi
Weather by CustomWeather, © 2016

See weather overviewHow to use our weather pages